Location: ?????????
(38.5999°N, 22.7695°E)
Time: 16:18:51
(UTC+00:00)

MSX - Pass Details

Date: 23 May 2024
Orbit: 893 x 906 km, 99.0° (Epoch: 23 June)

Event Time Altitude Azimuth Distance (km) Brightness Sun altitude
Rises 00:23:11 0° 13° (NNE) 3,518 8.1 -24.7°
Reaches altitude 10° 00:25:36 10° 13° (NNE) 2,573 7.2 -24.4°
Maximum altitude 00:31:21 87° 284° (WNW) 901 3.7 -23.8°
Enters shadow 00:32:44 54° 200° (SSW) 1,074 3.8 -23.7°
